カタログに戻る

IMPUL'S-1

運用中アマチュア無線SSO
NORAD 57173·PAYLOAD·🇷🇺 Russia
この衛星名は、まだ公式ソースで確認されていません。

打ち上げ Jun 27, 2023 から Vostochny Cosmodrome

Loading…

次のパス (今後24時間)

TLE

最新Source: Space-Track

元期: Sep 14, 2026, 14:46 UTC

1 57173U 23091H   26257.61566991  .00009073  00000-0  31159-3 0  9994
2 57173  97.4955 321.5986 0010201 149.9482 210.2346 15.30311896177975

AllMySatでIMPUL'S-1をリアルタイム追跡

Download on the App Store